Regional Weather Roundup
Issued by NWS State College, PA

Home | Current Version | Previous Version | Text Only | Print | Product List | Glossary Off
Versions: 1 2 3 4 5 6 7 8 9 10 11 12 13 14 15 16 17 18 19 20 21 22 23 24 25 26 27 28 29 30 31 32 33 34 35 36 37 38 39 40 41 42 43 44 45 46 47 48 49 50

000
ASUS41 KCTP 202103
RWRCTP

REGIONAL WEATHER ROUNDUP
NATIONAL WEATHER SERVICE STATE COLLEGE PA
500 PM EDT FRI APR 20 2018

Note: "fair" indicates few or no clouds below 12,000 feet with no
significant weather and/or obstructions to visibility.

* = STATION THAT DOES NOT REPORT PRECIPITATION /E.G. RAIN...SNOW...ETC/
    THUNDER OR FOG.

PAZ002>004-007>009-013>016-020>023-029>032-202200-
WESTERN PENNSYLVANIA

CITY           SKY/WX    TMP DP  RH WIND       PRES   REMARKS
ERIE           FAIR      45  26  47 W10G18    30.43F
MEADVILLE      FAIR      45  25  45 N9G17     30.40S
FRANKLIN*      FAIR      46  23  40 N12G18    30.38S
NEW CASTLE     FAIR      50  22  33 N14       30.41R
BEAVER COUNTY  SUNNY     52  21  30 NW10G20   30.39S
BUTLER*        FAIR      50  21  32 NW10G16   30.38S
PITTSBURGH INT FAIR      53  20  27 N16       30.37F
PITTSBURGH     FAIR      52  21  29 NW7G25    30.36S
INDIANA*       SUNNY     52  25  35 NW12G21   30.37S
LATROBE        SUNNY     50  23  34 NW12G23   30.36F
WASHINGTON CO* FAIR      52  21  29 NW8       30.40S
$$

PAZ004>006-010>012-017>019-024>028-033>037-041-042-045-046-049>053-202200-
CENTRAL PENNSYLVANIA

CITY           SKY/WX    TMP DP  RH WIND       PRES   REMARKS
BRADFORD       FAIR      42  24  49 N13       30.33R
DUBOIS         FAIR      48  23  37 NW15G22   30.31R
CLEARFIELD     FAIR      51  23  33 NW18G25   30.30S
JOHNSTOWN      FAIR      47  26  44 W17G26    30.29S
ALTOONA        FAIR      52  26  36 NW15G22   30.29F
STATE COLLEGE  SUNNY     52  23  32 NW16      30.28R
WILLIAMSPORT   FAIR      51  23  33 N15G25    30.29R
SELINSGROVE    FAIR      51  28  41 N14       30.28R
FT INDIANTOWN  MOSUNNY   53  24  32 N10G21    30.26R
CAPITAL CITY   FAIR      58  25  28 NW17      30.26R
HARRISBURG     FAIR      56  28  34 NW15      30.25R
YORK           FAIR      55  27  34 NW16G24   30.26R
$$

PAZ038>040-043-044-047-048-054-055-060>062-067>071-202200-
EASTERN PENNSYLVANIA

CITY           SKY/WX    TMP DP  RH WIND       PRES   REMARKS
SCRANTON       CLOUDY    42  24  49 NW10G21   30.29R
MOUNT POCONO   FAIR      37  22  54 NW20G31   30.20S
ALLENTOWN      FAIR      51  25  36 NW18G28   30.25R
QUAKERTOWN*    CLEAR     50  25  37 NW10G20   30.24R
READING        FAIR      52  28  39 NW17G25   30.26R
LANCASTER      FAIR      54  29  38 NW14G20   30.25R
COATESVILLE    FAIR      50  25  37 NW15G24   30.26R
POTTSTOWN      FAIR      51  26  37 NW10G24   30.26R
BLUE BELL      FAIR      50  28  43 N5        30.25R
DOYLESTOWN     FAIR      52  24  33 N12G22    30.23R
WILLOW GROVE   NOT AVBL
NORTH PHILA    FAIR      55  25  31 N21G29    30.24R
PHILADELPHIA   FAIR      53  24  32 NW22      30.25R
$$




USA.gov is the U.S. government's official web portal to all federal, state and local government web resources and services.